| time (UTC) | temp F | wind direction | speed MPH | gust MPH | rain 1hr in | rain 24hr in | rain mn in | humidity % | barometer mb |
| 20260507190005 | 64 | 263 | 1.0 | 10.0 | 0.00 | 0.00 | 0.00 | 64 | 1024.5 |
| 20260507184504 | 63 | 259 | 3.0 | 10.0 | 0.00 | 0.00 | 0.00 | 64 | 1024.7 |
| 20260507183004 | 61 | 299 | 0.0 | 8.0 | 0.00 | 0.00 | 0.00 | 66 | 1024.8 |
| 20260507180004 | 60 | 252 | 1.0 | 10.0 | 0.00 | 0.00 | 0.00 | 67 | 1025.1 |
| 20260507174504 | 60 | 267 | 2.0 | 6.0 | 0.00 | 0.00 | 0.00 | 70 | 1025.2 |
| 20260507173004 | 59 | 255 | 1.0 | 7.0 | 0.00 | 0.00 | 0.00 | 69 | 1025.5 |
| 20260507171504 | 58 | 267 | 1.0 | 6.0 | 0.00 | 0.00 | 0.00 | 69 | 1025.6 |
| 20260507170005 | 58 | 173 | 2.0 | 6.0 | 0.00 | 0.00 | 0.00 | 71 | 1025.5 |
| 20260507164505 | 56 | 287 | 1.0 | 3.0 | 0.00 | 0.00 | 0.00 | 74 | 1025.4 |
| 20260507163005 | 56 | 257 | 1.0 | 6.0 | 0.00 | 0.00 | 0.00 | 75 | 1025.5 |
| 20260507161504 | 56 | 268 | 1.0 | 6.0 | 0.00 | 0.00 | 0.00 | 75 | 1025.5 |
| 20260507160005 | 55 | 258 | 1.0 | 3.0 | 0.00 | 0.00 | 0.00 | 76 | 1025.5 |
| 20260507154505 | 54 | 234 | 1.0 | 5.0 | 0.00 | 0.00 | 0.00 | 75 | 1025.5 |
| 20260507153004 | 54 | 230 | 1.0 | 3.0 | 0.00 | 0.00 | 0.00 | 77 | 1025.5 |
| 20260507151505 | 53 | 275 | 1.0 | 6.0 | 0.00 | 0.00 | 0.00 | 79 | 1025.7 |
| 20260507150005 | 53 | 238 | 2.0 | 6.0 | 0.00 | 0.00 | 0.00 | 78 | 1025.5 |
| 20260507143005 | 53 | 248 | 0.0 | 5.0 | 0.00 | 0.00 | 0.00 | 79 | 1025.4 |
| 20260507141504 | 52 | 257 | 1.0 | 8.0 | 0.00 | 0.00 | 0.00 | 78 | 1025.4 |
| 20260507140006 | 52 | 244 | 1.0 | 7.0 | 0.00 | 0.00 | 0.00 | 80 | 1025.2 |
| 20260507134504 | 52 | 258 | 3.0 | 8.0 | 0.00 | 0.00 | 0.00 | 80 | 1025.1 |
| 20260507133005 | 52 | 260 | 1.0 | 7.0 | 0.00 | 0.00 | 0.00 | 80 | 1025.2 |
| 20260507131505 | 52 | 238 | 3.0 | 5.0 | 0.00 | 0.00 | 0.00 | 79 | 1025.2 |
| 20260507130004 | 52 | 259 | 1.0 | 6.0 | 0.00 | 0.00 | 0.00 | 79 | 1025.3 |
| 20260507124504 | 53 | 232 | 5.0 | 10.0 | 0.00 | 0.00 | 0.00 | 79 | 1025.3 |
| 20260507123004 | 53 | 251 | 3.0 | 7.0 | 0.00 | 0.00 | 0.00 | 79 | 1025.2 |
| 20260507114505 | 53 | 257 | 3.0 | 7.0 | 0.00 | 0.00 | 0.00 | 80 | 1025.3 |
| 20260507113004 | 54 | 264 | 3.0 | 10.0 | 0.00 | 0.00 | 0.00 | 79 | 1025.3 |
| 20260507111506 | 54 | 246 | 3.0 | 9.0 | 0.00 | 0.00 | 0.00 | 80 | 1025.4 |
| 20260507110006 | 54 | 271 | 3.0 | 9.0 | 0.00 | 0.00 | 0.00 | 80 | 1025.4 |
| 20260507104504 | 54 | 264 | 3.0 | 9.0 | 0.00 | 0.00 | 0.00 | 80 | 1025.4 |
| 20260507103005 | 54 | 269 | 4.0 | 12.0 | 0.00 | 0.00 | 0.00 | 80 | 1025.5 |
| 20260507101506 | 54 | 242 | 3.0 | 12.0 | 0.00 | 0.00 | 0.00 | 80 | 1025.7 |
| 20260507100005 | 54 | 274 | 3.0 | 12.0 | 0.00 | 0.00 | 0.00 | 80 | 1025.7 |
| 20260507090005 | 55 | 248 | 3.0 | 8.0 | 0.00 | 0.00 | 0.00 | 80 | 1025.9 |
| 20260507084505 | 55 | 272 | 4.0 | 7.0 | 0.00 | 0.00 | 0.00 | 80 | 1026.1 |
| 20260507083005 | 55 | 280 | 3.0 | 8.0 | 0.00 | 0.00 | 0.00 | 80 | 1026.1 |
| 20260507081506 | 55 | 282 | 5.0 | 10.0 | 0.00 | 0.00 | 0.00 | 79 | 1026.1 |
| 20260507080004 | 55 | 280 | 5.0 | 8.0 | 0.00 | 0.00 | 0.00 | 79 | 1026.0 |
| 20260507074505 | 55 | 253 | 6.0 | 10.0 | 0.00 | 0.00 | 0.00 | 79 | 1026.0 |
| 20260507073005 | 56 | 240 | 2.0 | 12.0 | 0.00 | 0.00 | 0.00 | 79 | 1025.9 |
| 20260507071505 | 56 | 268 | 5.0 | 12.0 | 0.00 | 0.00 | 0.00 | 78 | 1025.9 |
| 20260507070009 | 56 | 241 | 5.0 | 13.0 | 0.00 | 0.00 | 0.00 | 78 | 1025.9 |
| 20260507064505 | 56 | 282 | 3.0 | 12.0 | 0.00 | 0.00 | 0.00 | 79 | 1025.9 |
| 20260507063004 | 56 | 250 | 6.0 | 13.0 | 0.00 | 0.00 | 0.00 | 78 | 1025.9 |
| 20260507061505 | 57 | 222 | 3.0 | 9.0 | 0.00 | 0.00 | 0.00 | 78 | 1025.8 |
| 20260507060005 | 57 | 248 | 5.0 | 12.0 | 0.00 | 0.00 | 0.00 | 78 | 1025.7 |
| 20260507054505 | 57 | 255 | 3.0 | 14.0 | 0.00 | 0.00 | 0.00 | 78 | 1025.7 |
| 20260507053005 | 57 | 242 | 5.0 | 14.0 | 0.00 | 0.00 | 0.00 | 78 | 1025.7 |
| 20260507051505 | 58 | 265 | 2.0 | 12.0 | 0.00 | 0.00 | 0.00 | 79 | 1025.6 |
| 20260507050006 | 58 | 268 | 7.0 | 14.0 | 0.00 | 0.00 | 0.00 | 78 | 1025.7 |
| 20260507043005 | 59 | 264 | 6.0 | 12.0 | 0.00 | 0.00 | 0.00 | 79 | 1025.4 |
| 20260507041505 | 59 | 267 | 6.0 | 13.0 | 0.00 | 0.00 | 0.00 | 79 | 1025.4 |
| 20260507034504 | 60 | 263 | 7.0 | 13.0 | 0.00 | 0.00 | 0.00 | 79 | 1024.7 |
| 20260507033005 | 61 | 261 | 2.0 | 12.0 | 0.00 | 0.00 | 0.00 | 78 | 1024.6 |
| 20260507031504 | 61 | 228 | 4.0 | 12.0 | 0.00 | 0.00 | 0.00 | 79 | 1024.4 |
| 20260507030004 | 61 | 252 | 3.0 | 9.0 | 0.00 | 0.00 | 0.00 | 78 | 1024.2 |
| 20260507024505 | 62 | 262 | 3.0 | 8.0 | 0.00 | 0.00 | 0.00 | 77 | 1024.1 |
| 20260507023005 | 63 | 261 | 0.0 | 1.0 | 0.00 | 0.00 | 0.00 | 76 | 1023.9 |
| 20260507021504 | 64 | 246 | 2.0 | 8.0 | 0.00 | 0.00 | 0.00 | 74 | 1024.0 |
| 20260507020004 | 65 | 263 | 3.0 | 9.0 | 0.00 | 0.00 | 0.00 | 73 | 1024.1 |
| 20260507014505 | 65 | 246 | 0.0 | 6.0 | 0.00 | 0.00 | 0.00 | 73 | 1024.2 |
| 20260507013004 | 65 | 261 | 0.0 | 1.0 | 0.00 | 0.00 | 0.00 | 72 | 1024.2 |
| 20260507010004 | 66 | 267 | 0.0 | 0.0 | 0.00 | 0.00 | 0.00 | 71 | 1024.4 |
| 20260507004504 | 65 | 267 | 1.0 | 6.0 | 0.00 | 0.00 | 0.00 | 69 | 1024.4 |
| 20260507003005 | 66 | 236 | 2.0 | 5.0 | 0.00 | 0.00 | 0.00 | 70 | 1024.4 |
| 20260507001504 | 66 | 248 | 1.0 | 5.0 | 0.00 | 0.00 | 0.00 | 70 | 1024.3 |
| 20260507000004 | 66 | 261 | 1.0 | 3.0 | 0.00 | 0.00 | 0.00 | 70 | 1024.4 |
| 20260506234505 | 66 | 265 | 0.0 | 3.0 | 0.00 | 0.00 | 0.00 | 68 | 1024.4 |
| 20260506233004 | 66 | 273 | 1.0 | 3.0 | 0.00 | 0.00 | 0.00 | 68 | 1024.5 |
| 20260506231505 | 66 | 244 | 0.0 | 0.0 | 0.00 | 0.00 | 0.00 | 70 | 1024.7 |
| 20260506230005 | 66 | 247 | 0.0 | 5.0 | 0.00 | 0.00 | 0.00 | 68 | 1024.8 |
| 20260506224504 | 65 | 232 | 2.0 | 8.0 | 0.00 | 0.00 | 0.00 | 69 | 1025.0 |
| 20260506223004 | 66 | 245 | 2.0 | 7.0 | 0.00 | 0.00 | 0.00 | 70 | 1025.0 |
| 20260506220005 | 67 | 271 | 4.0 | 10.0 | 0.00 | 0.00 | 0.00 | 68 | 1025.0 |
| 20260506213004 | 67 | 239 | 0.0 | 6.0 | 0.00 | 0.00 | 0.00 | 70 | 1025.2 |
| 20260506211504 | 66 | 145 | 1.0 | 8.0 | 0.00 | 0.00 | 0.00 | 69 | 1025.3 |
| 20260506210005 | 67 | 182 | 0.0 | 5.0 | 0.00 | 0.00 | 0.00 | 68 | 1025.3 |
| 20260506204504 | 67 | 255 | 0.0 | 7.0 | 0.00 | 0.00 | 0.00 | 70 | 1025.2 |
| 20260506203005 | 68 | 127 | 0.0 | 2.0 | 0.00 | 0.00 | 0.00 | 70 | 1025.4 |
| 20260506200005 | 65 | 203 | 0.0 | 10.0 | 0.00 | 0.00 | 0.00 | 72 | 1025.5 |